DW9186 Weather Reports


Display with metric or nautical units.
time (UTC)temp
F
wind
direction
speed
MPH
gust
MPH
rain 1hr
in
rain 24hr
in
rain mn
in
humidity
%
barometer
mb
20260504141103 67 117 0.0 3.0 0.00 0.00 0.00 56 1016.7
20260504140603 66 244 1.0 3.0 0.00 0.00 0.00 55 1016.8
20260504140103 66 119 1.0 2.0 0.00 0.00 0.00 56 1016.9
20260504130603 56 227 0.0 0.0 0.00 0.00 0.00 83 1017.0
20260504120103 49 0 0.0 0.0 0.00 0.00 0.00 91 1016.6
20260504110603 47 0 0.0 0.0 0.00 0.00 0.00 89 1016.2
20260504100603 47 0 0.0 0.0 0.00 0.00 0.00 88 1015.9
20260504081603 48 0 0.0 0.0 0.00 0.00 0.00 86 1016.0
20260504081103 48 0 0.0 0.0 0.00 0.00 0.00 86 1016.0
20260504080604 48 0 0.0 0.0 0.00 0.00 0.00 86 1016.0
20260504080104 48 0 0.0 0.0 0.00 0.00 0.00 86 1016.0
20260504070103 49 0 0.0 0.0 0.00 0.00 0.00 84 1016.3
20260504050603 50 0 0.0 0.0 0.00 0.00 0.00 79 1017.3
20260504045604 51 0 0.0 0.0 0.00 0.00 0.00 79 1017.2
20260504044603 51 0 0.0 0.0 0.00 0.00 0.00 79 1017.2
20260504044103 51 0 0.0 0.0 0.00 0.00 0.00 79 1017.2
20260504043604 51 0 0.0 0.0 0.00 0.00 0.00 79 1017.2
20260504043104 51 0 0.0 0.0 0.00 0.00 0.00 79 1017.2
20260504042104 51 0 0.0 0.0 0.00 0.00 0.00 78 1017.0
20260504041604 51 0 0.0 0.0 0.00 0.00 0.00 77 1017.0
20260504041103 51 0 0.0 0.0 0.00 0.00 0.00 76 1017.0
20260504040604 51 0 0.0 0.0 0.00 0.00 0.00 76 1017.0
20260504040103 51 0 0.0 0.0 0.00 0.00 0.00 76 1017.1
20260504035604 51 0 0.0 0.0 0.00 0.00 0.00 75 1017.2
20260504034103 52 0 0.0 0.0 0.00 0.00 0.00 74 1017.4
20260504033603 52 0 0.0 0.0 0.00 0.00 0.00 74 1017.5
20260504033103 52 0 0.0 0.0 0.00 0.00 0.00 73 1017.5
20260504032603 52 0 0.0 0.0 0.00 0.00 0.00 73 1017.6
20260504032104 52 0 0.0 0.0 0.00 0.00 0.00 73 1017.6
20260504031603 53 0 0.0 0.0 0.00 0.00 0.00 73 1017.7
20260504031104 53 0 0.0 0.0 0.00 0.00 0.00 72 1017.7
20260504030603 53 0 0.0 0.0 0.00 0.00 0.00 72 1017.8
20260504030104 53 0 0.0 0.0 0.00 0.00 0.00 71 1017.8
20260504025103 54 0 0.0 0.0 0.00 0.00 0.00 70 1017.7
20260504024604 54 0 0.0 0.0 0.00 0.00 0.00 69 1017.7
20260504024103 54 0 0.0 0.0 0.00 0.00 0.00 68 1017.7
20260504023604 54 343 0.0 0.0 0.00 0.00 0.00 67 1017.7
20260504023104 55 269 0.0 0.0 0.00 0.00 0.00 66 1017.6
20260504022603 55 249 0.0 0.0 0.00 0.00 0.00 66 1017.6
20260504022103 55 227 0.0 0.0 0.00 0.00 0.00 65 1017.6
20260504021604 55 227 0.0 0.0 0.00 0.00 0.00 64 1017.5
20260504021103 56 227 0.0 0.0 0.00 0.00 0.00 63 1017.4
20260504020603 56 227 0.0 0.0 0.00 0.00 0.00 62 1017.3
20260504020103 56 227 0.0 0.0 0.00 0.00 0.00 62 1017.3
20260504015603 57 227 0.0 0.0 0.00 0.00 0.00 61 1017.2
20260504015103 57 227 0.0 0.0 0.00 0.00 0.00 60 1017.2
20260504014604 57 227 0.0 0.0 0.00 0.00 0.00 60 1017.1
20260504014103 58 227 0.0 0.0 0.00 0.00 0.00 60 1017.0
20260504013103 58 227 0.0 0.0 0.00 0.00 0.00 57 1016.7
20260504012104 59 227 0.0 0.0 0.00 0.00 0.00 56 1016.7
20260504011603 60 227 0.0 0.0 0.00 0.00 0.00 54 1016.6
20260504011103 60 227 0.0 0.0 0.00 0.00 0.00 52 1016.6
20260504010104 61 227 0.0 0.0 0.00 0.00 0.00 51 1016.6
20260504005604 61 227 0.0 0.0 0.00 0.00 0.00 51 1016.6
20260504005104 62 227 0.0 0.0 0.00 0.00 0.00 50 1016.7
20260504004604 62 227 0.0 0.0 0.00 0.00 0.00 48 1016.7
20260504004103 63 227 0.0 0.0 0.00 0.00 0.00 48 1016.6
20260504003604 63 227 0.0 0.0 0.00 0.00 0.00 47 1016.6
20260504003103 63 227 0.0 0.0 0.00 0.00 0.00 45 1016.6
20260504002604 64 227 0.0 0.0 0.00 0.00 0.00 43 1016.7
20260504002103 64 227 0.0 0.0 0.00 0.00 0.00 43 1016.7
20260504001604 64 227 0.0 0.0 0.00 0.00 0.00 42 1016.8
20260504001104 64 227 0.0 0.0 0.00 0.00 0.00 42 1016.8
20260504000603 65 227 0.0 0.0 0.00 0.00 0.00 42 1016.8
20260503234603 66 225 1.0 3.0 0.00 0.00 0.00 40 1016.8
20260503234103 66 225 1.0 2.0 0.00 0.00 0.00 40 1016.8
20260503233603 66 224 0.0 2.0 0.00 0.00 0.00 40 1016.8
20260503233103 66 224 1.0 2.0 0.00 0.00 0.00 39 1016.9
20260503232603 67 223 2.0 3.0 0.00 0.00 0.00 39 1016.9
20260503231604 66 252 1.0 3.0 0.00 0.00 0.00 40 1017.0
20260503230603 67 267 1.0 3.0 0.00 0.00 0.00 40 1017.0
20260503230104 67 287 1.0 3.0 0.00 0.00 0.00 40 1017.1
20260503225604 67 254 1.0 3.0 0.00 0.00 0.00 40 1017.2
20260503225104 67 260 1.0 3.0 0.00 0.00 0.00 39 1017.1
20260503224604 67 260 1.0 3.0 0.00 0.00 0.00 38 1017.2
20260503224103 67 261 2.0 3.0 0.00 0.00 0.00 40 1017.1
20260503223603 67 274 1.0 3.0 0.00 0.00 0.00 40 1017.1
20260503222105 67 254 1.0 3.0 0.00 0.00 0.00 38 1017.3
20260503221103 68 251 3.0 5.0 0.00 0.00 0.00 38 1017.5
20260503220604 68 238 2.0 3.0 0.00 0.00 0.00 38 1017.4
20260503220104 67 228 1.0 3.0 0.00 0.00 0.00 38 1017.5
20260503215603 67 250 2.0 3.0 0.00 0.00 0.00 37 1017.5
20260503214604 68 301 2.0 5.0 0.00 0.00 0.00 37 1017.6
20260503213604 70 263 2.0 3.0 0.00 0.00 0.00 35 1017.7
20260503213104 70 245 1.0 3.0 0.00 0.00 0.00 36 1017.7
20260503212603 70 243 1.0 2.0 0.00 0.00 0.00 37 1017.8
20260503212103 69 250 0.0 3.0 0.00 0.00 0.00 37 1017.9
20260503211104 69 14 1.0 3.0 0.00 0.00 0.00 39 1017.9
20260503210603 68 258 2.0 6.0 0.00 0.00 0.00 38 1018.0
20260503205602 69 275 1.0 3.0 0.00 0.00 0.00 39 1018.0
20260503204602 69 261 2.0 3.0 0.00 0.00 0.00 35 1018.1
20260503203602 70 253 2.0 5.0 0.00 0.00 0.00 34 1018.2
20260503203103 69 257 1.0 3.0 0.00 0.00 0.00 38 1018.3
20260503202603 69 250 1.0 3.0 0.00 0.00 0.00 37 1018.4
20260503201603 67 252 2.0 3.0 0.00 0.00 0.00 36 1018.7
20260503200603 66 292 1.0 3.0 0.00 0.00 0.00 40 1019.0
20260503195603 68 285 1.0 3.0 0.00 0.00 0.00 40 1019.2
20260503195103 69 273 2.0 6.0 0.00 0.00 0.00 41 1019.1
20260503194602 68 253 1.0 3.0 0.00 0.00 0.00 42 1019.3
20260503194102 68 257 1.0 7.0 0.00 0.00 0.00 41 1019.4
20260503193602 68 328 1.0 6.0 0.00 0.00 0.00 43 1019.5
20260503193103 67 255 1.0 3.0 0.00 0.00 0.00 43 1019.6
20260503192602 66 236 2.0 6.0 0.00 0.00 0.00 44 1019.7
20260503191603 67 260 1.0 3.0 0.00 0.00 0.00 42 1019.9
20260503191102 67 264 2.0 8.0 0.00 0.00 0.00 43 1020.0
20260503190603 67 246 2.0 5.0 0.00 0.00 0.00 44 1020.0
20260503185603 68 290 2.0 6.0 0.00 0.00 0.00 43 1020.1
20260503185102 68 266 2.0 5.0 0.00 0.00 0.00 42 1020.1
20260503184603 68 272 1.0 2.0 0.00 0.00 0.00 44 1020.2
20260503184102 68 274 1.0 5.0 0.00 0.00 0.00 44 1020.3
20260503183603 67 70 2.0 3.0 0.00 0.00 0.00 47 1020.3
20260503183104 66 102 1.0 3.0 0.00 0.00 0.00 46 1020.3
20260503182603 65 239 2.0 7.0 0.00 0.00 0.00 46 1020.4
20260503182103 65 273 2.0 6.0 0.00 0.00 0.00 45 1020.4
20260503181103 67 262 3.0 6.0 0.00 0.00 0.00 43 1020.5
20260503180603 67 281 1.0 3.0 0.00 0.00 0.00 45 1020.6
20260503180103 66 316 1.0 2.0 0.00 0.00 0.00 46 1020.6
20260503175602 66 331 1.0 3.0 0.00 0.00 0.00 48 1020.7
20260503175103 66 207 1.0 5.0 0.00 0.00 0.00 49 1020.7
20260503174603 65 80 2.0 3.0 0.00 0.00 0.00 52 1020.8
20260503174103 65 261 2.0 6.0 0.00 0.00 0.00 47 1020.8
20260503173602 66 276 2.0 3.0 0.00 0.00 0.00 45 1020.9
20260503172602 65 101 1.0 3.0 0.00 0.00 0.00 49 1021.0
20260503172103 64 248 0.0 2.0 0.00 0.00 0.00 48 1021.1
20260503171603 64 261 2.0 6.0 0.00 0.00 0.00 46 1021.2
20260503171102 64 271 1.0 3.0 0.00 0.00 0.00 47 1021.2
20260503170603 64 254 1.0 2.0 0.00 0.00 0.00 44 1021.3
20260503170103 64 230 1.0 2.0 0.00 0.00 0.00 45 1021.4
20260503160103 60 252 1.0 3.0 0.00 0.00 0.00 54 1021.7
20260503150603 59 157 1.0 2.0 0.00 0.00 0.00 61 1022.0